User: anonymous   Login
Location: Chmeli�t?
(49.8978°N, 15.0526°E)
Time: 12:01:50
(UTC+00:00)
Language:

STARLINK-1257 - Orbit

View from above orbital plane
View from above orbital plane
View from above satellite
View from above satellite

Ground track
Ground track

The orbit data is extracted from the following two-line orbital elements,

1 45402C 20019AU  21167.08962154  .00002861  00000-0  19173-3 0  1677
2 45402  53.0546 332.1245 0001635 106.4507 284.0796 15.06391839    10
Epoch (UTC): 16 June 2021 02:09:03
Eccentricity: 0.0001635
inclination: 53.0546°
perigee height: 546 km
apogee height: 548 km
right ascension of ascending node: 332.1245°
argument of perigee: 106.4507°
revolutions per day: 15.06391839
mean anomaly at epoch: 284.0796°
orbit number at epoch: 1

The dashed part of the orbit path shows where the satellite is in the earth's shadow,  

DLR